| time (UTC) | temp F | wind direction | speed MPH | gust MPH | rain 1hr in | rain 24hr in | rain mn in | humidity % | barometer mb |
| 20260902143603 | 78 | 63 | 5.0 | 9.0 | 0.00 | 0.00 | 0.00 | 53 | 1016.4 |
| 20260902142705 | 78 | 67 | 5.0 | 9.0 | 0.00 | 0.00 | 0.00 | 53 | 1016.5 |
| 20260902141803 | 78 | 56 | 3.0 | 8.0 | 0.00 | 0.00 | 0.00 | 53 | 1016.6 |
| 20260902140903 | 78 | 57 | 4.0 | 11.0 | 0.00 | 0.00 | 0.00 | 54 | 1016.6 |
| 20260902140004 | 78 | 55 | 5.0 | 10.0 | 0.00 | 0.00 | 0.00 | 54 | 1016.6 |
| 20260902135403 | 77 | 66 | 5.0 | 9.0 | 0.00 | 0.00 | 0.00 | 55 | 1016.6 |
| 20260902134504 | 75 | 76 | 6.0 | 12.0 | 0.00 | 0.00 | 0.00 | 55 | 1016.8 |
| 20260902133817 | 75 | 74 | 5.0 | 9.0 | 0.00 | 0.00 | 0.00 | 55 | 1016.8 |
| 20260902132703 | 76 | 76 | 5.0 | 8.0 | 0.00 | 0.00 | 0.00 | 55 | 1016.8 |
| 20260902131803 | 77 | 89 | 4.0 | 8.0 | 0.00 | 0.00 | 0.00 | 53 | 1016.9 |
| 20260902130903 | 78 | 67 | 4.0 | 10.0 | 0.00 | 0.00 | 0.00 | 53 | 1016.9 |
| 20260902130004 | 78 | 65 | 4.0 | 9.0 | 0.00 | 0.00 | 0.00 | 52 | 1016.9 |
| 20260902125403 | 78 | 50 | 5.0 | 13.0 | 0.00 | 0.00 | 0.00 | 51 | 1017.0 |
| 20260902124503 | 79 | 58 | 5.0 | 13.0 | 0.00 | 0.00 | 0.00 | 51 | 1017.0 |
| 20260902123603 | 79 | 65 | 3.0 | 9.0 | 0.00 | 0.00 | 0.00 | 52 | 1017.0 |
| 20260902122703 | 78 | 69 | 6.0 | 12.0 | 0.00 | 0.00 | 0.00 | 53 | 1017.1 |
| 20260902121803 | 78 | 70 | 4.0 | 10.0 | 0.00 | 0.00 | 0.00 | 52 | 1017.1 |
| 20260902121116 | 77 | 78 | 5.0 | 10.0 | 0.00 | 0.00 | 0.00 | 52 | 1017.2 |
| 20260902120218 | 78 | 44 | 6.0 | 16.0 | 0.00 | 0.00 | 0.00 | 52 | 1017.3 |
| 20260902115403 | 77 | 55 | 5.0 | 15.0 | 0.00 | 0.00 | 0.00 | 53 | 1017.4 |
| 20260902114504 | 76 | 90 | 6.0 | 12.0 | 0.00 | 0.00 | 0.00 | 55 | 1017.4 |
| 20260902113603 | 76 | 66 | 9.0 | 18.0 | 0.00 | 0.00 | 0.00 | 53 | 1017.4 |
| 20260902112703 | 76 | 61 | 6.0 | 14.0 | 0.00 | 0.00 | 0.00 | 54 | 1017.4 |
| 20260902112017 | 76 | 74 | 6.0 | 14.0 | 0.00 | 0.00 | 0.00 | 54 | 1017.4 |
| 20260902110903 | 75 | 74 | 8.0 | 16.0 | 0.00 | 0.00 | 0.00 | 54 | 1017.7 |
| 20260902110005 | 75 | 62 | 6.0 | 12.0 | 0.00 | 0.00 | 0.00 | 54 | 1017.9 |
| 20260902105403 | 75 | 71 | 8.0 | 17.0 | 0.00 | 0.00 | 0.00 | 55 | 1017.9 |
| 20260902104503 | 75 | 70 | 7.0 | 17.0 | 0.00 | 0.00 | 0.00 | 55 | 1017.9 |
| 20260902103603 | 74 | 79 | 8.0 | 17.0 | 0.00 | 0.00 | 0.00 | 56 | 1017.9 |
| 20260902102703 | 73 | 82 | 11.0 | 17.0 | 0.00 | 0.00 | 0.00 | 55 | 1018.1 |
| 20260902101803 | 73 | 69 | 10.0 | 19.0 | 0.00 | 0.00 | 0.00 | 56 | 1018.0 |
| 20260902101118 | 73 | 75 | 9.0 | 20.0 | 0.00 | 0.00 | 0.00 | 56 | 1018.0 |
| 20260902100004 | 72 | 75 | 11.0 | 19.0 | 0.00 | 0.00 | 0.00 | 56 | 1017.9 |
| 20260902095619 | 72 | 77 | 12.0 | 19.0 | 0.00 | 0.00 | 0.00 | 56 | 1017.9 |
| 20260902094503 | 72 | 73 | 10.0 | 19.0 | 0.00 | 0.00 | 0.00 | 57 | 1018.1 |
| 20260902093603 | 71 | 70 | 12.0 | 20.0 | 0.00 | 0.00 | 0.00 | 57 | 1017.9 |
| 20260902092917 | 71 | 65 | 13.0 | 23.0 | 0.00 | 0.00 | 0.00 | 58 | 1017.9 |
| 20260902091803 | 70 | 75 | 14.0 | 20.0 | 0.00 | 0.00 | 0.00 | 58 | 1018.1 |
| 20260902090903 | 71 | 72 | 13.0 | 20.0 | 0.00 | 0.00 | 0.00 | 58 | 1018.2 |
| 20260902090004 | 70 | 76 | 14.0 | 26.0 | 0.00 | 0.00 | 0.00 | 58 | 1018.2 |
| 20260902085616 | 70 | 77 | 15.0 | 26.0 | 0.00 | 0.00 | 0.00 | 58 | 1018.1 |
| 20260902084503 | 70 | 73 | 13.0 | 23.0 | 0.00 | 0.00 | 0.00 | 58 | 1017.9 |
| 20260902083603 | 70 | 73 | 13.0 | 23.0 | 0.00 | 0.00 | 0.00 | 58 | 1017.7 |
| 20260902082918 | 69 | 70 | 15.0 | 23.0 | 0.00 | 0.00 | 0.00 | 58 | 1017.7 |
| 20260902081803 | 69 | 73 | 15.0 | 23.0 | 0.00 | 0.00 | 0.00 | 57 | 1017.7 |
| 20260902080903 | 69 | 79 | 14.0 | 22.0 | 0.00 | 0.00 | 0.00 | 58 | 1017.8 |
| 20260902080003 | 68 | 79 | 15.0 | 23.0 | 0.00 | 0.00 | 0.00 | 57 | 1017.7 |
| 20260902075403 | 68 | 75 | 15.0 | 24.0 | 0.00 | 0.00 | 0.00 | 58 | 1017.3 |
| 20260902074503 | 68 | 71 | 14.0 | 23.0 | 0.00 | 0.00 | 0.00 | 59 | 1017.3 |
| 20260902073603 | 67 | 72 | 15.0 | 24.0 | 0.00 | 0.00 | 0.00 | 59 | 1017.2 |
| 20260902072703 | 67 | 70 | 15.0 | 22.0 | 0.00 | 0.00 | 0.00 | 59 | 1017.2 |
| 20260902071803 | 67 | 68 | 15.0 | 22.0 | 0.00 | 0.00 | 0.00 | 60 | 1017.3 |
| 20260902070903 | 67 | 78 | 14.0 | 24.0 | 0.00 | 0.00 | 0.00 | 60 | 1017.2 |
| 20260902070006 | 66 | 79 | 15.0 | 23.0 | 0.00 | 0.00 | 0.00 | 60 | 1017.2 |
| 20260902065618 | 66 | 73 | 16.0 | 23.0 | 0.00 | 0.00 | 0.00 | 60 | 1017.2 |
| 20260902064503 | 66 | 78 | 15.0 | 22.0 | 0.00 | 0.00 | 0.00 | 60 | 1017.3 |
| 20260902063603 | 66 | 80 | 15.0 | 23.0 | 0.00 | 0.00 | 0.00 | 61 | 1017.0 |
| 20260902062703 | 66 | 78 | 16.0 | 26.0 | 0.00 | 0.00 | 0.00 | 61 | 1017.1 |
| 20260902062017 | 65 | 75 | 16.0 | 26.0 | 0.00 | 0.00 | 0.00 | 61 | 1017.0 |
| 20260902060903 | 65 | 79 | 17.0 | 23.0 | 0.00 | 0.00 | 0.00 | 62 | 1017.0 |
| 20260902060217 | 65 | 75 | 17.0 | 23.0 | 0.00 | 0.00 | 0.00 | 62 | 1017.0 |
| 20260902055403 | 65 | 71 | 17.0 | 25.0 | 0.00 | 0.00 | 0.00 | 61 | 1017.0 |
| 20260902054503 | 64 | 79 | 16.0 | 23.0 | 0.00 | 0.00 | 0.00 | 63 | 1017.0 |
| 20260902053603 | 64 | 75 | 16.0 | 26.0 | 0.00 | 0.00 | 0.00 | 63 | 1016.9 |
| 20260902052703 | 64 | 78 | 16.0 | 26.0 | 0.00 | 0.00 | 0.00 | 63 | 1016.9 |
| 20260902051803 | 64 | 75 | 14.0 | 21.0 | 0.00 | 0.00 | 0.00 | 63 | 1016.9 |
| 20260902050903 | 64 | 76 | 15.0 | 22.0 | 0.00 | 0.00 | 0.00 | 63 | 1016.9 |
| 20260902050006 | 64 | 81 | 13.0 | 21.0 | 0.00 | 0.00 | 0.00 | 62 | 1016.9 |
| 20260902045403 | 64 | 78 | 14.0 | 23.0 | 0.00 | 0.00 | 0.00 | 62 | 1016.8 |
| 20260902044718 | 64 | 73 | 14.0 | 23.0 | 0.00 | 0.00 | 0.00 | 61 | 1016.8 |
| 20260902043603 | 64 | 80 | 15.0 | 23.0 | 0.00 | 0.00 | 0.00 | 61 | 1016.7 |
| 20260902042703 | 65 | 81 | 16.0 | 24.0 | 0.00 | 0.00 | 0.00 | 61 | 1016.7 |
| 20260902041803 | 65 | 79 | 16.0 | 23.0 | 0.00 | 0.00 | 0.00 | 61 | 1016.7 |
| 20260902041118 | 65 | 79 | 16.0 | 23.0 | 0.00 | 0.00 | 0.00 | 61 | 1016.7 |
| 20260902040004 | 65 | 79 | 15.0 | 24.0 | 0.00 | 0.00 | 0.00 | 61 | 1016.6 |
| 20260902035616 | 65 | 80 | 14.0 | 23.0 | 0.00 | 0.00 | 0.00 | 61 | 1016.7 |
| 20260902034503 | 65 | 77 | 14.0 | 23.0 | 0.00 | 0.00 | 0.00 | 60 | 1016.7 |
| 20260902033603 | 65 | 75 | 14.0 | 23.0 | 0.00 | 0.00 | 0.00 | 60 | 1017.0 |
| 20260902032703 | 65 | 76 | 15.0 | 21.0 | 0.00 | 0.00 | 0.00 | 60 | 1016.9 |
| 20260902032018 | 65 | 76 | 15.0 | 22.0 | 0.00 | 0.00 | 0.00 | 60 | 1016.9 |
| 20260902030903 | 65 | 75 | 15.0 | 23.0 | 0.00 | 0.00 | 0.00 | 60 | 1016.9 |
| 20260902030004 | 65 | 76 | 15.0 | 22.0 | 0.00 | 0.00 | 0.00 | 60 | 1017.0 |
| 20260902025403 | 66 | 75 | 14.0 | 22.0 | 0.00 | 0.00 | 0.00 | 60 | 1016.9 |
| 20260902024503 | 66 | 65 | 13.0 | 23.0 | 0.00 | 0.00 | 0.00 | 60 | 1017.0 |
| 20260902023603 | 66 | 66 | 12.0 | 18.0 | 0.00 | 0.00 | 0.00 | 60 | 1017.0 |
| 20260902022703 | 66 | 76 | 11.0 | 19.0 | 0.00 | 0.00 | 0.00 | 59 | 1017.0 |
| 20260902021803 | 66 | 78 | 12.0 | 21.0 | 0.00 | 0.00 | 0.00 | 59 | 1017.0 |
| 20260902020903 | 67 | 77 | 13.0 | 20.0 | 0.00 | 0.00 | 0.00 | 58 | 1017.0 |
| 20260902020003 | 67 | 77 | 14.0 | 20.0 | 0.00 | 0.00 | 0.00 | 58 | 1017.0 |
| 20260902015403 | 67 | 78 | 15.0 | 22.0 | 0.00 | 0.00 | 0.00 | 58 | 1017.0 |
| 20260902014503 | 67 | 76 | 15.0 | 21.0 | 0.00 | 0.00 | 0.00 | 59 | 1016.9 |
| 20260902013603 | 67 | 77 | 15.0 | 24.0 | 0.00 | 0.00 | 0.00 | 59 | 1016.9 |
| 20260902012703 | 66 | 77 | 14.0 | 24.0 | 0.00 | 0.00 | 0.00 | 59 | 1016.9 |
| 20260902012017 | 66 | 85 | 13.0 | 21.0 | 0.00 | 0.00 | 0.00 | 59 | 1017.1 |
| 20260902010903 | 66 | 81 | 15.0 | 22.0 | 0.00 | 0.00 | 0.00 | 59 | 1017.2 |
| 20260902010003 | 66 | 77 | 14.0 | 22.0 | 0.00 | 0.00 | 0.00 | 60 | 1017.2 |
| 20260902005403 | 66 | 77 | 13.0 | 22.0 | 0.00 | 0.00 | 0.00 | 60 | 1017.3 |
| 20260902004716 | 66 | 74 | 11.0 | 17.0 | 0.00 | 0.00 | 0.00 | 60 | 1017.3 |
| 20260902003603 | 66 | 66 | 12.0 | 21.0 | 0.00 | 0.00 | 0.00 | 61 | 1017.4 |
| 20260902002703 | 66 | 68 | 13.0 | 21.0 | 0.00 | 0.00 | 0.00 | 61 | 1017.4 |
| 20260902001803 | 66 | 72 | 12.0 | 20.0 | 0.00 | 0.00 | 0.00 | 61 | 1017.5 |
| 20260902000903 | 66 | 74 | 12.0 | 20.0 | 0.00 | 0.00 | 0.00 | 61 | 1017.5 |
| 20260902000004 | 66 | 72 | 12.0 | 18.0 | 0.00 | 0.00 | 0.00 | 61 | 1017.8 |
| 20260901235403 | 66 | 70 | 11.0 | 19.0 | 0.00 | 0.00 | 0.00 | 61 | 1017.8 |
| 20260901234503 | 67 | 70 | 12.0 | 19.0 | 0.00 | 0.00 | 0.00 | 60 | 1017.8 |
| 20260901233603 | 67 | 67 | 12.0 | 20.0 | 0.00 | 0.00 | 0.00 | 59 | 1017.8 |
| 20260901232917 | 67 | 64 | 12.0 | 20.0 | 0.00 | 0.00 | 0.00 | 59 | 1017.8 |
| 20260901232018 | 67 | 67 | 12.0 | 23.0 | 0.00 | 0.00 | 0.00 | 59 | 1017.9 |
| 20260901230903 | 67 | 66 | 7.0 | 18.0 | 0.00 | 0.00 | 0.00 | 60 | 1018.0 |
| 20260901230004 | 67 | 66 | 4.0 | 13.0 | 0.00 | 0.00 | 0.00 | 60 | 1018.2 |
| 20260901225403 | 67 | 53 | 3.0 | 9.0 | 0.00 | 0.00 | 0.00 | 59 | 1018.2 |
| 20260901224503 | 68 | 54 | 8.0 | 17.0 | 0.00 | 0.00 | 0.00 | 58 | 1018.2 |
| 20260901223603 | 68 | 64 | 10.0 | 17.0 | 0.00 | 0.00 | 0.00 | 58 | 1017.8 |
| 20260901222703 | 68 | 65 | 11.0 | 21.0 | 0.00 | 0.00 | 0.00 | 58 | 1017.8 |
| 20260901221803 | 68 | 64 | 12.0 | 20.0 | 0.00 | 0.00 | 0.00 | 58 | 1017.4 |
| 20260901220903 | 68 | 76 | 10.0 | 18.0 | 0.00 | 0.00 | 0.00 | 58 | 1017.4 |
| 20260901220004 | 68 | 83 | 12.0 | 20.0 | 0.00 | 0.00 | 0.00 | 57 | 1017.3 |
| 20260901215403 | 68 | 76 | 12.0 | 20.0 | 0.00 | 0.00 | 0.00 | 57 | 1017.3 |
| 20260901214503 | 68 | 71 | 11.0 | 19.0 | 0.00 | 0.00 | 0.00 | 57 | 1017.2 |
| 20260901213604 | 68 | 68 | 11.0 | 19.0 | 0.00 | 0.00 | 0.00 | 57 | 1017.2 |
| 20260901212703 | 68 | 57 | 12.0 | 20.0 | 0.00 | 0.00 | 0.00 | 57 | 1017.2 |
| 20260901211803 | 68 | 71 | 12.0 | 19.0 | 0.00 | 0.00 | 0.00 | 57 | 1017.2 |
| 20260901210903 | 69 | 71 | 12.0 | 20.0 | 0.00 | 0.00 | 0.00 | 57 | 1017.3 |
| 20260901210004 | 69 | 68 | 11.0 | 18.0 | 0.00 | 0.00 | 0.00 | 57 | 1017.2 |
| 20260901205403 | 69 | 68 | 12.0 | 18.0 | 0.00 | 0.00 | 0.00 | 57 | 1017.2 |
| 20260901204503 | 69 | 73 | 12.0 | 22.0 | 0.00 | 0.00 | 0.00 | 57 | 1017.1 |
| 20260901203603 | 69 | 77 | 12.0 | 20.0 | 0.00 | 0.00 | 0.00 | 57 | 1017.2 |
| 20260901202703 | 69 | 78 | 11.0 | 20.0 | 0.00 | 0.00 | 0.00 | 57 | 1017.1 |
| 20260901201803 | 69 | 65 | 11.0 | 21.0 | 0.00 | 0.00 | 0.00 | 57 | 1017.3 |
| 20260901200903 | 69 | 69 | 12.0 | 20.0 | 0.00 | 0.00 | 0.00 | 57 | 1017.4 |
| 20260901200003 | 69 | 66 | 10.0 | 19.0 | 0.00 | 0.00 | 0.00 | 57 | 1017.3 |
| 20260901195403 | 69 | 67 | 10.0 | 18.0 | 0.00 | 0.00 | 0.00 | 57 | 1017.3 |
| 20260901194503 | 69 | 68 | 10.0 | 18.0 | 0.00 | 0.00 | 0.00 | 57 | 1017.3 |
| 20260901193603 | 69 | 63 | 10.0 | 17.0 | 0.00 | 0.00 | 0.00 | 56 | 1017.3 |
| 20260901192703 | 69 | 73 | 9.0 | 17.0 | 0.00 | 0.00 | 0.00 | 56 | 1017.2 |
| 20260901191803 | 69 | 70 | 9.0 | 17.0 | 0.00 | 0.00 | 0.00 | 56 | 1017.1 |
| 20260901190903 | 70 | 74 | 9.0 | 15.0 | 0.00 | 0.00 | 0.00 | 56 | 1017.0 |
| 20260901190004 | 70 | 77 | 10.0 | 15.0 | 0.00 | 0.00 | 0.00 | 56 | 1017.0 |
| 20260901185403 | 70 | 76 | 9.0 | 17.0 | 0.00 | 0.00 | 0.00 | 56 | 1017.0 |
| 20260901184503 | 70 | 82 | 10.0 | 18.0 | 0.00 | 0.00 | 0.00 | 56 | 1016.9 |
| 20260901183603 | 70 | 75 | 10.0 | 18.0 | 0.00 | 0.00 | 0.00 | 56 | 1016.9 |
| 20260901182703 | 70 | 78 | 10.0 | 16.0 | 0.00 | 0.00 | 0.00 | 57 | 1016.7 |
| 20260901181803 | 70 | 81 | 10.0 | 17.0 | 0.00 | 0.00 | 0.00 | 57 | 1016.7 |
| 20260901180904 | 70 | 82 | 8.0 | 15.0 | 0.00 | 0.00 | 0.00 | 58 | 1016.8 |
| 20260901180003 | 70 | 76 | 8.0 | 13.0 | 0.00 | 0.00 | 0.00 | 58 | 1016.7 |
| 20260901175403 | 70 | 79 | 8.0 | 14.0 | 0.00 | 0.00 | 0.00 | 58 | 1016.5 |
| 20260901174503 | 70 | 69 | 8.0 | 13.0 | 0.00 | 0.00 | 0.00 | 58 | 1016.6 |
| 20260901173603 | 71 | 66 | 7.0 | 15.0 | 0.00 | 0.00 | 0.00 | 57 | 1016.5 |
| 20260901172703 | 71 | 65 | 7.0 | 13.0 | 0.00 | 0.00 | 0.00 | 56 | 1016.5 |
| 20260901171804 | 72 | 63 | 6.0 | 14.0 | 0.00 | 0.00 | 0.00 | 56 | 1016.5 |
| 20260901170903 | 72 | 62 | 6.0 | 14.0 | 0.00 | 0.00 | 0.00 | 55 | 1016.6 |
| 20260901170003 | 73 | 60 | 6.0 | 11.0 | 0.00 | 0.00 | 0.00 | 55 | 1016.5 |
| 20260901165618 | 73 | 58 | 6.0 | 13.0 | 0.00 | 0.00 | 0.00 | 54 | 1016.5 |
| 20260901164503 | 74 | 63 | 5.0 | 10.0 | 0.00 | 0.00 | 0.00 | 54 | 1016.6 |
| 20260901163603 | 75 | 72 | 4.0 | 10.0 | 0.00 | 0.00 | 0.00 | 53 | 1016.6 |
| 20260901162703 | 75 | 71 | 4.0 | 10.0 | 0.00 | 0.00 | 0.00 | 52 | 1016.6 |
| 20260901162017 | 75 | 65 | 5.0 | 15.0 | 0.00 | 0.00 | 0.00 | 53 | 1016.6 |
| 20260901160903 | 76 | 65 | 6.0 | 12.0 | 0.00 | 0.00 | 0.00 | 52 | 1016.6 |
| 20260901160218 | 76 | 65 | 6.0 | 12.0 | 0.00 | 0.00 | 0.00 | 52 | 1016.7 |
| 20260901155618 | 76 | 57 | 5.0 | 12.0 | 0.00 | 0.00 | 0.00 | 53 | 1016.7 |
| 20260901154503 | 77 | 68 | 4.0 | 11.0 | 0.00 | 0.00 | 0.00 | 52 | 1016.9 |
| 20260901153603 | 76 | 59 | 5.0 | 12.0 | 0.00 | 0.00 | 0.00 | 52 | 1016.9 |
| 20260901152703 | 77 | 57 | 4.0 | 12.0 | 0.00 | 0.00 | 0.00 | 52 | 1016.9 |
| 20260901151803 | 77 | 63 | 5.0 | 12.0 | 0.00 | 0.00 | 0.00 | 51 | 1017.0 |
| 20260901150903 | 77 | 77 | 4.0 | 11.0 | 0.00 | 0.00 | 0.00 | 51 | 1017.0 |
| 20260901150004 | 77 | 76 | 5.0 | 11.0 | 0.00 | 0.00 | 0.00 | 51 | 1017.0 |
| 20260901145403 | 77 | 55 | 4.0 | 11.0 | 0.00 | 0.00 | 0.00 | 52 | 1017.0 |
| 20260901144717 | 78 | 48 | 4.0 | 9.0 | 0.00 | 0.00 | 0.00 | 51 | 1017.0 |